FW1409 Westport CT US current weather conditions

sailwx.info

Wind from 180

Air temperature -1.7° C
Dewpoint -7.6° C

Last reported at 2019-Dec-08 15:02 UTC.
Time now 2019-Dec-08 15:31 UTC

Location: N 41°10' W 073°20'.
View on Google Maps.

See reports from other nearby stations

  
Tides and Currents Weather Stations Pressure Air Temp Water Temp Dewpoint Dewpoint Depression Visibility Wind Speed Wind Dir Waves Ship Positions
date/time (UTC)wind fromknots sea level pressurealtimeterstation pressurevisibilityair tempwater tempwave heightnotes
2019-Dec-08 15:02 180 -1.7
2019-Dec-08 14:46 120 -1.7
2019-Dec-08 14:31 120 -2.2
2019-Dec-08 14:15 345 -2.2
2019-Dec-08 14:01 038 -2.2
2019-Dec-08 13:46 038 -3.9
2019-Dec-08 13:30 038 -5.6
2019-Dec-08 13:15 028 -6.7
2019-Dec-08 13:01 307 -7.2
2019-Dec-08 12:45 307 -7.8
2019-Dec-08 12:30 307 -8.3
2019-Dec-08 12:16 307 -8.3
2019-Dec-08 12:00 307 -8.3
2019-Dec-08 11:45 307 -8.3
2019-Dec-08 11:30 307 -8.3
2019-Dec-08 11:15 305 -7.8
2019-Dec-08 11:00 304 -8.3
2019-Dec-08 10:45 304 -8.3
2019-Dec-08 10:30 304 -8.3
2019-Dec-08 10:15 304 -7.8
2019-Dec-08 10:00 313 -7.8
2019-Dec-08 09:45 312 -7.8
2019-Dec-08 09:30 313 -7.8
2019-Dec-08 09:15 312 -7.8
2019-Dec-08 09:01 312 -7.8
2019-Dec-08 08:47 312 -7.8
2019-Dec-08 08:31 312 -7.2
2019-Dec-08 08:17 312 -7.2
2019-Dec-08 08:01 312 -7.8
2019-Dec-08 07:47 312 -7.2
2019-Dec-08 07:32 312 -7.2
2019-Dec-08 07:16 312 -7.2
2019-Dec-08 07:02 312 -6.7
2019-Dec-08 06:47 312 -6.7
2019-Dec-08 06:31 312 -6.7
2019-Dec-08 06:16 312 -6.7
2019-Dec-08 06:00 359 -6.1
2019-Dec-08 05:45 359 -6.1
2019-Dec-08 05:30 359 -6.1
2019-Dec-08 05:15 034 -6.1
2019-Dec-08 05:00 033 -5.6
2019-Dec-08 04:30 033 -5.0
2019-Dec-08 04:15 033 -5.0
2019-Dec-08 04:00 033 -5.0
2019-Dec-08 03:45 033 -4.4
2019-Dec-08 03:30 033 -4.4
2019-Dec-08 03:15 033 -3.9
2019-Dec-08 03:00 033 -3.9
2019-Dec-08 02:45 033 -3.9
2019-Dec-08 02:31 034 -3.9
2019-Dec-08 02:16 034 -3.9
2019-Dec-08 02:02 034 -3.9
2019-Dec-08 01:46 034 -3.9
2019-Dec-08 01:32 034 -3.3
2019-Dec-08 01:16 034 -3.3
2019-Dec-08 01:01 034 -3.3
2019-Dec-08 00:46 033 -3.3
2019-Dec-08 00:31 034 -3.3
2019-Dec-08 00:15 034 -2.8
2019-Dec-08 00:00 035 -2.8
2019-Dec-07 23:45 241 -2.2
2019-Dec-07 23:30 241 -2.2
2019-Dec-07 23:15 241 -2.2
2019-Dec-07 23:01 240 -2.2
2019-Dec-07 22:45 264 -2.2
2019-Dec-07 22:30 278 -1.7
2019-Dec-07 22:15 278 -1.1
2019-Dec-07 22:00 210 -0.6
2019-Dec-07 21:45 236 -0.6
2019-Dec-07 21:30 239 -0.0
2019-Dec-07 21:15 259 1.1
2019-Dec-07 21:00 315 1.7
2019-Dec-07 20:45 309 0 gusting 6 1.7
2019-Dec-07 20:30 041 2.2
2019-Dec-07 20:15 240 0 gusting 3 2.2
2019-Dec-07 20:00 314 0 gusting 4 2.8
2019-Dec-07 19:45 247 0 gusting 3 2.2
2019-Dec-07 19:31 265 0 gusting 7 2.2
2019-Dec-07 19:16 273 1 gusting 5 1.7
2019-Dec-07 19:03 335 2.2
2019-Dec-07 18:46 331 0 gusting 7 2.2
2019-Dec-07 18:31 317 2 gusting 6 2.8
2019-Dec-07 18:17 254 1 gusting 5 2.2
2019-Dec-07 18:01 307 0 gusting 6 1.7
2019-Dec-07 17:47 301 1 gusting 6 2.2
2019-Dec-07 17:31 305 1 gusting 7 2.2
2019-Dec-07 17:16 319 0 gusting 5 2.2
2019-Dec-07 17:02 291 2 gusting 5 2.8
2019-Dec-07 16:46 319 2.8
2019-Dec-07 16:31 317 0 gusting 4 2.2
2019-Dec-07 16:16 307 1 gusting 6 2.2
2019-Dec-07 16:01 311 2 gusting 5 1.7
2019-Dec-07 15:47 236 1 gusting 4 1.7
2019-Dec-07 15:31 044 1 gusting 6 1.7
2019-Dec-07 15:16 247 0 gusting 3 1.7
2019-Dec-07 15:01 290 1 gusting 5 1.1
2019-Dec-07 14:46 240 0 gusting 5 1.1
2019-Dec-07 14:30 017 0 gusting 2 0.6
2019-Dec-07 14:16 316 -0.0
2019-Dec-07 14:01 324 0 gusting 1 -0.6
2019-Dec-07 13:46 313 -1.1
2019-Dec-07 13:30 317 -2.2
2019-Dec-07 13:15 338 -2.8
2019-Dec-07 13:01 338 -3.3
2019-Dec-07 12:46 338 -3.9
2019-Dec-07 12:30 338 -3.9
2019-Dec-07 12:16 338 -3.9
2019-Dec-07 12:00 338 -3.3
2019-Dec-07 11:45 338 -3.3
2019-Dec-07 11:30 338 -3.3
2019-Dec-07 11:15 305 -2.8
2019-Dec-07 11:00 305 -2.2
2019-Dec-07 10:45 305 -2.2
2019-Dec-07 10:30 304 -2.2
2019-Dec-07 10:15 259 -2.2
2019-Dec-07 10:02 269 -2.2
2019-Dec-07 09:47 314 -2.2
2019-Dec-07 09:32 086 -2.2
2019-Dec-07 09:16 308 -1.7
2019-Dec-07 09:02 312 -1.7
2019-Dec-07 08:46 313 -1.7
2019-Dec-07 08:31 295 -1.7
2019-Dec-07 08:16 060 -1.7
2019-Dec-07 08:01 312 -1.7
2019-Dec-07 07:46 299 -1.1
2019-Dec-07 07:31 323 -1.1
2019-Dec-07 07:17 310 -0.6
2019-Dec-07 07:00 313 -0.6
2019-Dec-07 06:46 283 -0.6
2019-Dec-07 06:30 310 -0.6
2019-Dec-07 06:16 310 -0.0
2019-Dec-07 06:00 310 0.6
2019-Dec-07 05:45 307 0.6
2019-Dec-07 05:30 309 0.6
2019-Dec-07 05:15 294 1.1
2019-Dec-07 05:00 320 1.1
2019-Dec-07 04:45 030 1.1
2019-Dec-07 04:30 313 1.7
2019-Dec-07 04:16 309 2.2
2019-Dec-07 04:00 276 2.8
2019-Dec-07 03:45 315 2.8
2019-Dec-07 03:30 303 0 gusting 4 3.3
2019-Dec-07 03:15 311 0 gusting 5 3.3
2019-Dec-07 03:00 182 1 gusting 6 3.9
2019-Dec-07 02:45 265 0 gusting 5 3.9
2019-Dec-07 02:30 342 0 gusting 5 4.4
2019-Dec-07 02:15 302 1 gusting 5 4.4
2019-Dec-07 02:00 293 2 gusting 6 5.0
2019-Dec-07 01:45 320 2 gusting 7 5.6
2019-Dec-07 01:30 212 3 gusting 9 5.6
2019-Dec-07 01:17 111 2 gusting 11 6.1
2019-Dec-07 01:02 328 2 gusting 8 6.7
2019-Dec-07 00:47 275 1 gusting 7 6.7
2019-Dec-07 00:31 281 0 gusting 9 7.2
2019-Dec-07 00:16 239 0 gusting 7 7.8
2019-Dec-07 00:01 293 2 gusting 10 7.8
2019-Dec-06 23:47 303 1 gusting 10 7.8
2019-Dec-06 23:31 309 2 gusting 7 8.3
2019-Dec-06 23:17 255 2 gusting 9 8.3
2019-Dec-06 23:02 287 6 gusting 16 8.3
2019-Dec-06 22:47 285 1 gusting 6 7.8
2019-Dec-06 22:31 283 1 gusting 9 7.8
2019-Dec-06 22:16 284 4 gusting 9 7.8
2019-Dec-06 22:01 260 3 gusting 12 7.8
2019-Dec-06 21:46 267 5 gusting 13 7.2
2019-Dec-06 21:31 283 1 gusting 10 6.7
2019-Dec-06 21:16 201 1 gusting 6 6.7
2019-Dec-06 21:01 255 0 gusting 4 6.1
2019-Dec-06 20:45 307 0 gusting 6 6.1
2019-Dec-06 20:31 250 6.1
2019-Dec-06 20:16 253 0 gusting 4 6.1
2019-Dec-06 20:01 120 1 gusting 6 6.1
2019-Dec-06 19:45 283 0 gusting 7 6.1
2019-Dec-06 19:30 176 2 gusting 7 6.1
2019-Dec-06 19:15 141 1 gusting 8 6.1
2019-Dec-06 19:00 288 1 gusting 6 6.1
2019-Dec-06 18:45 219 0 gusting 9 6.1
2019-Dec-06 18:30 141 3 gusting 9 5.6
2019-Dec-06 18:15 015 3 gusting 10 5.6
2019-Dec-06 18:00 254 3 gusting 7 5.0
2019-Dec-06 17:46 259 5.0
2019-Dec-06 17:31 282 1 gusting 8 5.0
2019-Dec-06 17:16 263 3 gusting 9 4.4
2019-Dec-06 17:02 243 2 gusting 11 4.4
2019-Dec-06 16:47 264 2 gusting 9 4.4
2019-Dec-06 16:31 205 1 gusting 7 5.0
2019-Dec-06 16:16 271 3 gusting 9 5.0
2019-Dec-06 16:01 259 4 gusting 12 4.4
2019-Dec-06 15:46 141 2 gusting 10 4.4
2019-Dec-06 15:31 281 4 gusting 11 3.9
2019-Dec-06 15:16 263 2 gusting 11 3.3
2019-Dec-06 15:00 266 2 gusting 8 3.3